TimePST,TemperatureF,Dew PointF,Humidity,Sea Level PressureIn,VisibilityMPH,Wind Direction,Wind SpeedMPH,Gust SpeedMPH,PrecipitationIn,Events,Conditions,WindDirDegrees,DateUTC
12:15 AM,44.6,41.0,87,29.63,10.0,South,6.9,-,N/A,,Mostly Cloudy,180,2012-11-18 08:15:00
12:55 AM,44.6,41.0,87,29.64,8.0,SSE,6.9,-,N/A,Rain,Light Rain,160,2012-11-18 08:55:00
1:15 AM,44.6,41.0,87,29.63,5.0,SSE,4.6,-,N/A,Rain,Light Rain,160,2012-11-18 09:15:00
1:35 AM,44.6,41.0,87,29.63,10.0,South,6.9,-,N/A,,Mostly Cloudy,170,2012-11-18 09:35:00
1:55 AM,44.6,41.0,87,29.63,10.0,South,8.1,-,N/A,,Mostly Cloudy,180,2012-11-18 09:55:00
2:15 AM,44.6,41.0,87,29.64,10.0,South,6.9,-,N/A,,Mostly Cloudy,170,2012-11-18 10:15:00
2:35 AM,44.6,39.2,81,29.64,10.0,South,13.8,19.6,N/A,,Overcast,190,2012-11-18 10:35:00
2:55 AM,44.6,41.0,87,29.65,10.0,South,11.5,20.7,N/A,Rain,Light Rain,190,2012-11-18 10:55:00
3:15 AM,44.6,41.0,87,29.66,10.0,South,11.5,20.7,N/A,Rain,Light Rain,180,2012-11-18 11:15:00
3:35 AM,44.6,39.2,81,29.65,10.0,South,8.1,-,N/A,,Overcast,170,2012-11-18 11:35:00
3:55 AM,44.6,39.2,81,29.65,10.0,South,9.2,16.1,N/A,Rain,Light Rain,170,2012-11-18 11:55:00
4:15 AM,46.4,41.0,81,29.66,10.0,South,10.4,18.4,N/A,,Mostly Cloudy,170,2012-11-18 12:15:00
4:35 AM,46.4,41.0,81,29.66,10.0,South,11.5,20.7,N/A,,Mostly Cloudy,170,2012-11-18 12:35:00
4:55 AM,46.4,41.0,81,29.66,10.0,SSE,10.4,18.4,N/A,,Mostly Cloudy,160,2012-11-18 12:55:00
5:15 AM,44.6,41.0,87,29.66,10.0,South,6.9,16.1,N/A,,Mostly Cloudy,170,2012-11-18 13:15:00
5:35 AM,44.6,41.0,87,29.66,10.0,South,10.4,18.4,N/A,,Scattered Clouds,190,2012-11-18 13:35:00
5:55 AM,44.6,41.0,87,29.66,10.0,South,11.5,17.3,N/A,,Scattered Clouds,180,2012-11-18 13:55:00
6:15 AM,44.6,39.2,81,29.65,10.0,South,11.5,17.3,N/A,,Mostly Cloudy,180,2012-11-18 14:15:00
6:35 AM,44.6,39.2,81,29.66,10.0,South,11.5,20.7,N/A,,Mostly Cloudy,180,2012-11-18 14:35:00
6:55 AM,46.4,39.2,76,29.66,10.0,South,15.0,21.9,N/A,,Mostly Cloudy,180,2012-11-18 14:55:00
7:15 AM,46.4,39.2,76,29.65,10.0,South,10.4,20.7,N/A,,Mostly Cloudy,170,2012-11-18 15:15:00
7:35 AM,46.4,39.2,76,29.65,10.0,South,17.3,26.5,N/A,,Overcast,180,2012-11-18 15:35:00
7:55 AM,46.4,41.0,81,29.65,10.0,South,10.4,19.6,N/A,,Mostly Cloudy,170,2012-11-18 15:55:00
8:15 AM,46.4,39.2,76,29.65,10.0,South,6.9,19.6,N/A,,Mostly Cloudy,170,2012-11-18 16:15:00
8:35 AM,46.4,39.2,76,29.64,10.0,South,11.5,27.6,N/A,,Mostly Cloudy,170,2012-11-18 16:35:00
8:55 AM,46.4,39.2,76,29.64,10.0,South,16.1,21.9,N/A,,Mostly Cloudy,180,2012-11-18 16:55:00
9:15 AM,46.4,39.2,76,29.64,10.0,South,11.5,25.3,N/A,,Mostly Cloudy,180,2012-11-18 17:15:00
9:35 AM,46.4,41.0,81,29.64,10.0,South,12.7,21.9,N/A,,Overcast,170,2012-11-18 17:35:00
9:55 AM,46.4,41.0,81,29.65,10.0,South,12.7,24.2,N/A,,Overcast,170,2012-11-18 17:55:00
10:15 AM,46.4,41.0,81,29.65,10.0,South,13.8,23.0,N/A,,Overcast,170,2012-11-18 18:15:00
10:35 AM,46.4,41.0,81,29.65,10.0,South,11.5,26.5,N/A,,Overcast,170,2012-11-18 18:35:00
10:55 AM,48.2,41.0,76,29.65,10.0,South,10.4,23.0,N/A,,Overcast,170,2012-11-18 18:55:00
11:15 AM,48.2,41.0,76,29.65,10.0,South,9.2,24.2,N/A,,Overcast,170,2012-11-18 19:15:00
11:55 AM,48.2,41.0,76,29.64,10.0,South,8.1,-,N/A,,Overcast,170,2012-11-18 19:55:00
12:15 PM,48.2,41.0,76,29.64,10.0,South,8.1,17.3,N/A,,Overcast,170,2012-11-18 20:15:00
12:35 PM,48.2,41.0,76,29.63,10.0,SSE,9.2,19.6,N/A,,Overcast,160,2012-11-18 20:35:00
12:55 PM,48.2,41.0,76,29.62,10.0,South,10.4,25.3,N/A,,Mostly Cloudy,170,2012-11-18 20:55:00
1:15 PM,48.2,41.0,76,29.62,10.0,South,12.7,24.2,N/A,,Mostly Cloudy,170,2012-11-18 21:15:00
1:35 PM,48.2,41.0,76,29.61,10.0,South,11.5,19.6,N/A,,Mostly Cloudy,180,2012-11-18 21:35:00
1:55 PM,48.2,41.0,76,29.60,10.0,South,9.2,18.4,N/A,,Mostly Cloudy,170,2012-11-18 21:55:00
2:15 PM,48.2,41.0,76,29.58,10.0,SSE,12.7,24.2,N/A,,Scattered Clouds,160,2012-11-18 22:15:00
2:55 PM,48.2,39.2,71,29.55,10.0,SSE,9.2,21.9,N/A,,Mostly Cloudy,160,2012-11-18 22:55:00
3:15 PM,48.2,39.2,71,29.54,10.0,SSE,11.5,33.4,N/A,,Scattered Clouds,160,2012-11-18 23:15:00
3:35 PM,50.0,39.2,66,29.53,10.0,SSE,12.7,29.9,N/A,,Partly Cloudy,160,2012-11-18 23:35:00
3:55 PM,50.0,39.2,66,29.51,10.0,SSE,12.7,33.4,N/A,,Clear,160,2012-11-18 23:55:00
4:15 PM,50.0,39.2,66,29.51,10.0,SSE,17.3,32.2,N/A,,Clear,160,2012-11-19 00:15:00
4:55 PM,50.0,39.2,66,29.46,10.0,SSE,20.7,33.4,N/A,,Clear,150,2012-11-19 00:55:00
5:15 PM,50.0,39.2,66,29.45,10.0,SE,19.6,35.7,N/A,,Clear,140,2012-11-19 01:15:00
5:35 PM,48.2,39.2,71,29.43,10.0,SSE,13.8,33.4,N/A,,Clear,150,2012-11-19 01:35:00
5:55 PM,50.0,41.0,71,29.42,10.0,SSE,12.7,31.1,N/A,,Clear,150,2012-11-19 01:55:00
6:15 PM,50.0,41.0,71,29.41,10.0,SSE,12.7,39.1,N/A,,Clear,160,2012-11-19 02:15:00
6:35 PM,48.2,41.0,76,29.40,8.0,SSE,13.8,28.8,N/A,Rain,Light Rain,160,2012-11-19 02:35:00
6:55 PM,46.4,44.6,93,29.40,5.0,SSE,12.7,20.7,0.02,Rain,Light Rain,160,2012-11-19 02:55:00
7:15 PM,46.4,42.8,87,29.39,10.0,SSE,15.0,24.2,N/A,,Mostly Cloudy,160,2012-11-19 03:15:00
7:35 PM,48.2,41.0,76,29.38,10.0,SSE,18.4,27.6,N/A,,Partly Cloudy,160,2012-11-19 03:35:00
7:55 PM,48.2,41.0,76,29.38,10.0,SSE,16.1,28.8,0.01,,Partly Cloudy,160,2012-11-19 03:55:00
8:15 PM,48.2,41.0,76,29.40,10.0,South,17.3,36.8,N/A,,Scattered Clouds,180,2012-11-19 04:15:00
8:35 PM,48.2,41.0,76,29.42,10.0,South,15.0,23.0,N/A,,Mostly Cloudy,180,2012-11-19 04:35:00
8:55 PM,48.2,41.0,76,29.44,10.0,South,13.8,29.9,N/A,,Scattered Clouds,170,2012-11-19 04:55:00
9:15 PM,48.2,41.0,76,29.45,10.0,South,12.7,23.0,N/A,,Scattered Clouds,170,2012-11-19 05:15:00
9:55 PM,48.2,42.8,82,29.46,10.0,South,10.4,20.7,N/A,,Partly Cloudy,170,2012-11-19 05:55:00
10:15 PM,48.2,42.8,82,29.46,10.0,South,10.4,17.3,N/A,,Mostly Cloudy,180,2012-11-19 06:15:00
10:55 PM,50.0,44.6,82,29.45,10.0,South,11.5,27.6,N/A,,Mostly Cloudy,170,2012-11-19 06:55:00
11:15 PM,50.0,44.6,82,29.45,10.0,South,11.5,21.9,N/A,,Mostly Cloudy,180,2012-11-19 07:15:00
11:35 PM,50.0,44.6,82,29.45,10.0,South,15.0,28.8,N/A,,Mostly Cloudy,170,2012-11-19 07:35:00
11:55 PM,50.0,44.6,82,29.45,10.0,SSE,9.2,21.9,N/A,,Mostly Cloudy,160,2012-11-19 07:55:00